Little Rock AFB, AR

5:06 PM CST on February 22, 2018 (GMT -0600)
Little Rock Air Force Base

Weather History for KLRF - October, 2013

Change the Weather History Date:

Thursday, October 10, 2013

  Actual Average Record
Temperature  
Mean Temperature 64 °F -  
Max Temperature 78 °F 74 °F 91 °F (1980)
Min Temperature 51 °F 50 °F 32 °F (1970)
Growing Degree Days 14 (Base 50)    
Moisture  
Dew Point 60 °F    
Average Humidity 91    
Maximum Humidity 100    
Minimum Humidity 48    
Precipitation  
Precipitation 0.00 in - - ()
Sea Level Pressure  
Sea Level Pressure 30.11 in    
Wind  
Wind Speed 2 mph (ESE)    
Max Wind Speed 8 mph    
Max Gust Speed -    
Visibility 6 miles    
Events Fog , Rain    
Averages and records for this station are not official NWS values.
T = Trace of Precipitation, MM = Missing Value Source: NWS Daily Summary

Daily Weather History Graph

Daily Weather History Graph

Search for Another Location

Airport or City:

Trip Planner

Search our weather history database for the weather conditions in past years. The results will help you decide how hot, cold, wet, or windy it might be!

Date:

Astronomy

Oct. 10, 2013 Rise Set
Actual Time 7:10 AM CDT 6:39 PM CDT
Civil Twilight 6:45 AM CDT 7:05 PM CDT
Nautical Twilight 6:15 AM CDT 7:34 PM CDT
Astronomical Twilight 5:46 AM CDT 8:03 PM CDT
Moon 12:54 PM CDT (10/10) 11:26 PM CDT (10/10)
Length of Visible Light 12h 19m
Length of Day
11h 29m
Waxing Crescent, 36% of the Moon is Illuminated
Oct 10
Waxing Crescent
Oct 11
First Quarter
Oct 18
Full
Oct 26
Last Quarter
Nov 3
New

Hourly Weather History & Observations

Time (CDT) Temp. Dew Point Humidity Pressure Visibility Wind Dir Wind Speed Gust Speed Precip Events Conditions
12:58 AM 54.7 °F 53.1 °F 94% 30.10 in 10.0 mi North 1.2 mph - N/A   Clear
1:58 AM 54.0 °F 52.2 °F 94% 30.11 in 10.0 mi ENE 1.2 mph - N/A   Clear
2:58 AM 54.0 °F 52.9 °F 96% 30.11 in 10.0 mi Calm Calm - N/A   Clear
3:58 AM 52.9 °F 51.4 °F 95% 30.11 in 10.0 mi ENE 1.2 mph - N/A   Clear
4:05 AM 51.8 °F 51.8 °F 100% 30.10 in 10.0 mi ENE 2.3 mph - N/A   Partly Cloudy
4:25 AM 51.8 °F 51.8 °F 100% 30.10 in 10.0 mi ENE 2.3 mph - N/A   Mostly Cloudy
4:35 AM 51.8 °F 51.8 °F 100% 30.09 in 10.0 mi Calm Calm - N/A   Mostly Cloudy
4:58 AM 53.1 °F 51.6 °F 95% 30.11 in 10.0 mi Calm Calm - N/A   Overcast
5:08 AM 53.6 °F 53.6 °F 100% 30.10 in 10.0 mi Calm Calm - N/A   Overcast
5:18 AM 55.4 °F 53.6 °F 94% 30.10 in 10.0 mi ENE 2.3 mph - N/A   Overcast
5:58 AM 56.7 °F 55.0 °F 94% 30.12 in 2.0 mi Calm Calm - N/A   Overcast
6:03 AM 57.2 °F 55.4 °F 94% 30.11 in 0.5 mi NE 1.2 mph - N/A Fog Fog
6:08 AM 57.2 °F 55.4 °F 94% 30.11 in 0.2 mi Calm Calm - N/A Fog Fog
6:58 AM 58.6 °F 58.5 °F 99% 30.12 in 0.2 mi East 1.2 mph - N/A Fog Fog
7:23 AM 60.8 °F 59.0 °F 94% 30.12 in 0.2 mi Calm Calm - N/A Fog Fog
7:33 AM 60.8 °F 60.8 °F 100% 30.12 in 0.2 mi SSW 6.9 mph - N/A Fog Fog
7:38 AM 60.8 °F 60.8 °F 100% 30.12 in 0.5 mi SW 5.8 mph - N/A Fog Fog
7:43 AM 60.8 °F 60.8 °F 100% 30.12 in 0.8 mi SW 5.8 mph - N/A   Overcast
7:48 AM 60.8 °F 60.8 °F 100% 30.12 in 0.5 mi SSW 4.6 mph - N/A Fog Fog
7:58 AM 61.0 °F 60.6 °F 99% 30.13 in 0.5 mi South 4.6 mph - N/A Fog Fog
8:03 AM 60.8 °F 60.8 °F 100% 30.12 in 0.5 mi SSW 3.5 mph - N/A Fog Fog
8:08 AM 60.8 °F 60.8 °F 100% 30.13 in 0.8 mi South 3.5 mph - N/A   Overcast
8:18 AM 60.8 °F 60.8 °F 100% 30.13 in 0.8 mi SSW 2.3 mph - N/A   Overcast
8:23 AM 60.8 °F 60.8 °F 100% 30.13 in 1.0 mi South 2.3 mph - N/A   Overcast
8:34 AM 60.8 °F 60.8 °F 100% 30.13 in 0.5 mi SSW 1.2 mph - N/A Fog Fog
8:56 AM 60.8 °F 60.8 °F 100% 30.14 in 0.8 mi Calm Calm - N/A   Mostly Cloudy
8:58 AM 61.3 °F 61.0 °F 99% 30.14 in 0.8 mi Calm Calm - N/A   Overcast
9:03 AM 60.8 °F 60.8 °F 100% 30.13 in 0.8 mi Calm Calm - N/A   Overcast
9:08 AM 60.8 °F 60.8 °F 100% 30.13 in 1.5 mi Calm Calm - N/A   Overcast
9:13 AM 60.8 °F 60.8 °F 100% 30.14 in 2.0 mi Calm Calm - N/A   Overcast
9:18 AM 60.8 °F 60.8 °F 100% 30.14 in 1.2 mi East 1.2 mph - N/A   Overcast
9:23 AM 62.6 °F 60.8 °F 94% 30.14 in 1.0 mi ESE 2.3 mph - N/A   Overcast
9:28 AM 62.6 °F 62.6 °F 100% 30.14 in 1.8 mi Variable 2.3 mph - N/A   Overcast
9:33 AM 62.6 °F 62.6 °F 100% 30.14 in 4.0 mi Calm Calm - N/A   Overcast
9:38 AM 62.6 °F 62.6 °F 100% 30.15 in 7.0 mi Calm Calm - N/A   Overcast
9:58 AM 62.6 °F 62.2 °F 99% 30.16 in 9.0 mi Variable 1.2 mph - N/A   Overcast
10:18 AM 62.6 °F 62.6 °F 100% 30.15 in 10.0 mi East 1.2 mph - N/A   Overcast
10:23 AM 64.4 °F 64.4 °F 100% 30.15 in 10.0 mi SSE 2.3 mph - N/A   Light Drizzle
10:28 AM 64.4 °F 64.4 °F 100% 30.15 in 10.0 mi SE 2.3 mph - N/A   Overcast
10:29 AM 64.4 °F 64.4 °F 100% 30.15 in 10.0 mi Calm Calm - N/A   Light Drizzle
10:30 AM 64.4 °F 64.4 °F 100% 30.15 in 10.0 mi Calm Calm - N/A   Overcast
10:31 AM 64.4 °F 64.4 °F 100% 30.15 in 10.0 mi North - - N/A Rain Light Rain
10:39 AM 64.4 °F 64.4 °F 100% 30.15 in 10.0 mi Calm Calm - N/A   Mostly Cloudy
10:40 AM 64.4 °F 64.4 °F 100% 30.15 in 10.0 mi Calm Calm - N/A Rain Light Rain
10:46 AM 64.4 °F 64.4 °F 100% 30.15 in 10.0 mi Variable 2.3 mph - N/A   Mostly Cloudy
10:48 AM 64.4 °F 64.4 °F 100% 30.15 in 10.0 mi ESE 3.5 mph - N/A   Light Drizzle
10:53 AM 66.2 °F 64.4 °F 94% 30.15 in 10.0 mi East 2.3 mph - N/A   Scattered Clouds
10:54 AM 66.2 °F 64.4 °F 94% 30.15 in 10.0 mi East 2.3 mph - N/A   Light Drizzle
10:55 AM 66.2 °F 64.4 °F 94% 30.16 in 10.0 mi Calm Calm - N/A   Scattered Clouds
10:58 AM 65.8 °F 64.4 °F 95% 30.16 in 10.0 mi East 1.2 mph - 0.00 in Rain Light Rain
11:31 AM 69.8 °F 62.6 °F 78% 30.14 in 10.0 mi Variable 3.5 mph - N/A   Clear
11:58 AM 71.6 °F 62.2 °F 72% 30.14 in 10.0 mi Variable 3.5 mph - 0.00 in   Clear
12:53 PM 75.2 °F 60.8 °F 61% - 10.0 mi Variable 4.6 mph - N/A   Mostly Cloudy
12:58 PM 76.5 °F 60.8 °F 58% - 10.0 mi Variable 5.8 mph - N/A   Mostly Cloudy
1:58 PM 77.2 °F 58.8 °F 53% 30.09 in 10.0 mi South 4.6 mph - N/A   Scattered Clouds
2:58 PM 77.9 °F 58.6 °F 51% 30.06 in 10.0 mi Variable 3.5 mph - N/A   Partly Cloudy
3:58 PM 78.3 °F 58.6 °F 51% 30.04 in 10.0 mi East 8.1 mph - N/A   Clear
4:58 PM 77.7 °F 56.8 °F 48% 30.04 in 10.0 mi SE 5.8 mph - N/A   Clear
5:58 PM 76.5 °F 58.1 °F 53% 30.03 in 10.0 mi East 4.6 mph - N/A   Clear
6:58 PM 68.9 °F 59.7 °F 72% 30.02 in 10.0 mi ESE 2.3 mph - N/A   Clear
7:10 PM 68.0 °F 59.0 °F 73% 30.01 in 10.0 mi ESE 2.3 mph - N/A Rain Light Rain
7:19 PM 66.2 °F 59.0 °F 78% 30.01 in 10.0 mi Calm Calm - N/A   Clear
7:58 PM 64.0 °F 59.2 °F 84% 30.02 in 10.0 mi East 2.3 mph - 0.00 in   Clear
8:58 PM 61.7 °F 57.7 °F 87% 30.02 in 10.0 mi East 2.3 mph - N/A   Clear
9:58 PM 62.4 °F 59.0 °F 89% 30.02 in 10.0 mi East 2.3 mph - N/A   Clear
10:58 PM 59.7 °F 57.4 °F 92% 30.02 in 10.0 mi Calm Calm - N/A   Clear
11:53 PM 57.2 °F 57.2 °F 100% 30.01 in 2.0 mi Calm Calm - N/A   Clear
11:58 PM 57.9 °F 56.7 °F 96% 30.01 in 1.5 mi Calm Calm - N/A   Clear